Location: Newark
(23.1300°N, 73.6109°E)
Time: 17:10:30
(UTC+00:00)

AO-7 - Pass Details

Date: 07 July 2020
Orbit: 1440 x 1458 km, 101.8° (Epoch: 05 August)

Event Time Altitude Azimuth Distance (km) Brightness Sun altitude
Rises 22:08:07 0° 25° (NNE) 4,562 ? -27.2°
Reaches altitude 10° 22:11:04 10° 31° (NNE) 3,582 ? -26.7°
Maximum altitude 22:19:03 48° 103° (ESE) 1,835 ? -25.4°
Enters shadow 22:26:13 13° 173° (S) 3,326 ? -24.1°
